www.pogodaiklimat.ru

Погода и климат >> Архив погоды >> Россия >> Чукотка >> Уэлен


АРХИВ ПОГОДЫ в Уэлене

Время (UTC), дата Ветер
(напр.,м/с)
 
Видим.   Явления Облачность Т
(С)
Тd
(С)
f
(%)
Тe
(С)
Тes
(С)
Комфортность P
(гПа)
Po
(гПа)
Тmin
(С)
Tmax
(С)
R
(мм)
R24
(мм)
S
(см)
00 12.04 С 6
{9}
20 км позёмок 10/10 300 м
[St]
-7.0 -9.9 80 -15 -15 1007.1 1006.2
03 12.04 СЗ 4
{11}
9000 м слаб. ливневой снег {метель} 10/10 300 м
[Cb cap]
-7.3 -9.8 82 -14 -14 1006.6 1005.7
06 12.04 С 6
{8}
9000 м слаб. ливневой снег {метель} 10/10 300 м
[Cb cap]
-6.7 -9.5 80 -15 -15 1006.2 1005.3 -6.7 0.2
09 12.04 С 5
{8}
9000 м слаб. ливневой снег {метель} 10/10 300 м
[Cb cap]
-6.6 -8.6 86 -14 -14 1006.5 1005.6
12 12.04 С 6
{10}
9000 м слаб. ливневой снег {метель} 10/10 300 м
[Cb cap]
-7.2 -9.3 85 -15 -15 1006.2 1005.3
15 12.04 С 5
{10}
6000 м позёмок {ливн. осадки} 10/10 300 м
[St]
-8.6 -9.7 92 -16 -16 1006.4 1005.5
18 12.04 СЗ 7
{10}
8000 м позёмок {ливн. осадки} 10/10 300 м
[St]
-9.6 -10.8 91 -19 -19 1006.0 1005.1 -9.6 0.2 59
21 12.04 СЗ 7
{9}
16 км позёмок 10/10 300 м
[St]
-8.8 -10.3 89 -18 -18 1006.2 1005.3
00 13.04 СЗ 6
{10}
20 км позёмок {ливн. осадки} 10/10 300 м
[St]
-8.6 -10.5 86 -17 -17 1006.2 1005.3
03 13.04 С 8
{10}
20 км позёмок {ливн. осадки} 10/10 300 м
[Cu Sc]
-8.7 -12.5 74 -18 -18 1006.3 1005.4
06 13.04 С 5
{11}
20 км позёмок {ливн. осадки} 9/9 300 м
[Cu Sc]
-9.1 -13.0 73 -17 -17 1006.7 1005.8 -8.5 0.0
09 13.04 С 6
{9}
9000 м слаб. ливневой снег {метель} 10/10 300 м
[Cb cap]
-9.9 -13.5 75 -18 -18 1007.5 1006.6
12 13.04 С 6
{10}
30 км позёмок {ливн. осадки} 10/10 300 м
[Cu Sc]
-10.5 -14.1 75 -19 -19 1008.3 1007.4
15 13.04 С 6
{9}
20 км позёмок 10/10 300 м
[Cu Sc]
-11.2 -14.7 75 -20 -20 1008.9 1008.0
18 13.04 СЗ 7
{8}
8000 м слаб. ливневой снег {метель} 10/10 300 м
[Cb cap]
-11.5 -15.0 75 -21 -21 1009.4 1008.5 -11.5 0.0 58
21 13.04 С 5
{8}
9000 м слаб. ливневой снег {метель} 10/10 300 м
[Cb cap]
-11.2 -15.6 70 -19 -19 1010.1 1009.2
00 14.04 С 4
{8}
9000 м слаб. ливневой снег {метель} 10/10 300 м
[Cb cap]
-10.9 -14.5 75 -18 -18 1010.8 1009.9
03 14.04 С 5
{9}
20 км позёмок {ливн. осадки} 10/10 300 м
[Cu Sc]
-10.8 -14.4 75 -19 -19 1011.4 1010.5
06 14.04 С 5
{8}
9000 м слаб. ливневой снег {метель} 10/10 300 м
[Cb cap]
-11.1 -14.7 75 -19 -19 1012.0 1011.1 -10.4 0.0
09 14.04 С 3
{8}
9000 м слаб. ливневой снег {метель} 9/9 300 м
[Cb cap]
-11.3 -14.8 75 -17 -17 1013.4 1012.5
12 14.04 С 4
{7}
8000 м слаб. ливневой снег {метель} 9/9 300 м
[Cb cap]
-11.5 -15.0 75 -19 -19 1014.0 1013.1
15 14.04 СЗ 4
{8}
20 км {ливн. осадки, метель} 9/9 300 м
[St]
-11.6 -15.1 75 -19 -19 1014.4 1013.5
18 14.04 СЗ 4
{8}
9000 м слаб. ливневой снег {метель} 10/10 300 м
[Cb cap]
-11.7 -15.2 75 -19 -19 1015.0 1014.1 -11.8 0.2 59
21 14.04 СЗ 4
{8}
8000 м слаб. ливневой снег {метель} 10/10 300 м
[Cb cap]
-11.2 -14.7 75 -18 -18 1015.7 1014.8
00 15.04 С 4
{8}
7000 м слаб. ливневой снег {метель} 9/9 300 м
[Cb cap]
-10.6 -14.2 75 -18 -17 1016.1 1015.2
03 15.04 С 4
{8}
9000 м слаб. ливневой снег {метель} 10/10 300 м
[Cb cap]
-10.6 -15.0 70 -18 -18 1016.3 1015.4
06 15.04 С 4
{8}
50 км {ливн. осадки, метель} 8/8 300 м
[Cu Sc]
-10.7 -15.1 70 -18 -18 1016.1 1015.2 -10.5 0.2
09 15.04 штиль 0
{5}
30 км 8/8 300 м
[Cu Sc]
-13.2 -15.9 80 -13 -13 1016.3 1015.3
12 15.04 штиль 0
{4}
9000 м слаб. ливневой снег 9/9 300 м
[Cb cap]
-13.2 -16.7 75 -13 -13 1015.9 1015.0
15 15.04 штиль 0
{3}
9000 м слаб. ливневой снег 10/10 300 м
[Cb cap]
-12.2 -15.7 75 -12 -12 1014.9 1014.0
18 15.04 С 4
{7}
8000 м слаб. ливневой снег {метель} 10/10 300 м
[Cb cap]
-12.6 -16.1 75 -20 -20 1014.3 1013.4 -14.0 0.2 59
21 15.04 СЗ 8
{11}
9000 м слаб. ливневой снег {метель} 9/9 300 м
[Cb cap]
-12.1 -16.4 70 -22 -22 1014.4 1013.5
00 16.04 С 9-10
{12}
20 км сильный позёмок {ливн. осадки} 9/9 300 м
[St]
-12.1 -16.4 70 -23 -23 1014.6 1013.7
03 16.04 С 7
{11}
20 км позёмок 9/9 300 м
[St]
-12.4 -16.7 70 -22 -22 1014.4 1013.5
06 16.04 СЗ 7
{9}
9000 м слаб. ливневой снег {метель} 9/9 300 м
[Cb cap]
-12.7 -17.0 70 -22 -22 1013.7 1012.7 -11.8 0.0
09 16.04 СЗ 10-11
{12}
25 км сильный позёмок {ливн. осадки} 10/10 300 м
[Cu Sc]
-13.6 -17.9 70 -25 -25 1013.8 1012.8
12 16.04 СЗ 9-10
{12}
9000 м слаб. ливневой снег {метель} 10/10 300 м
[Cb cap]
-14.6 -18.9 70 -26 -26 1013.5 1012.5
15 16.04 СЗ 6
{10}
9000 м слаб. ливневой снег {метель} 10/10 300 м
[Cb cap]
-14.6 -18.9 70 -24 -24 1013.2 1012.2
18 16.04 СЗ 8
{10}
9000 м слаб. ливневой снег {метель} 10/10 300 м
[Cb cap]
-15.4 -19.6 70 -26 -26 1013.0 1012.0 -15.4 0.0 60
21 16.04 С 6
{9}
9000 м слаб. ливневой снег {метель} 10/10 300 м
[Cb cap]
-14.8 -18.2 75 -24 -24 1012.7 1011.7
00 17.04 СЗ 7
{10}
20 км позёмок {ливн. осадки} 9/9 300 м
[Cu Sc]
-13.8 -17.3 75 -24 -24 1011.9 1010.9
03 17.04 СЗ 7
{10}
20 км позёмок 9/9 300 м
[Cu Sc]
-13.5 -17.0 75 -23 -23 1011.5 1010.5
06 17.04 С 5
{10}
20 км позёмок 10/10 300 м
[St]
-13.6 -17.9 70 -22 -22 1011.5 1010.5 -13.3 0.0
09 17.04 СЗ 8
{10}
28 км позёмок 10/10 300 м
[St]
-12.8 -16.3 75 -23 -23 1011.8 1010.8
12 17.04 С 8
{13}
8000 м слаб. ливневой снег {метель} 10/10 300 м
[Cb cap]
-12.1 -15.6 75 -22 -22 1011.7 1010.8
15 17.04 С 10-11
{14}
8000 м слаб. ливневой снег {метель} 10/10 300 м
[Cb cap]
-11.9 -15.4 75 -23 -23 1011.1 1010.2
18 17.04 С 11-12
{14}
6000 м метель {ливн. осадки} 10/10 300 м
[St]
-11.6 -15.1 75 -23 -23 1012.6 1011.7 -13.8 0.2 63
21 17.04 С 11-13
{14}
4100 м слаб. ливневой снег {метель} 10/10 300 м
[Cb cap]
-10.6 -14.2 75 -22 -22 1013.6 1012.7
00 18.04 С 11-13
{14}
2200 м слаб. ливневой снег {метель} 10/10 300 м
[Cb cap]
-11.0 -14.6 75 -22 -22 1014.4 1013.5
03 18.04 С 11-12
{14}
2300 м слаб. ливневой снег {метель} 10/10 300 м
[Cb cap]
-10.9 -14.5 75 -22 -22 1014.6 1013.7
06 18.04 С 13-14
{16}
6000 м метель {ливн. осадки} 10/10 300 м
[Cu Sc]
-10.5 -14.1 75 -22 -22 1014.7 1013.8 -10.5 0.2
09 18.04 С 11-13
{16}
5000 м слаб. ливневой снег {метель} 10/10 300 м
[Cb cap]
-10.4 -13.2 80 -22 -22 1014.7 1013.8
12 18.04 С 12-12
{16}
5000 м слаб. ливневой снег {метель} 10/10 300 м
[Cb cap]
-10.4 -13.2 80 -22 -22 1015.1 1014.2
15 18.04 С 11-13
{16}
8000 м слаб. ливневой снег {метель} 10/10 300 м
[Cb cap]
-12.0 -14.7 80 -23 -23 1015.7 1014.8
18 18.04 С 10-12
{15}
18 км сильный позёмок {ливн. осадки} 10/10 300 м
[Cu Sc]
-13.2 -16.7 75 -25 -25 1015.5 1014.6 -13.2 0.2 58
21 18.04 С 8
{14}
20 км позёмок 9/9 300 м
[Cu Sc]
-13.3 -16.7 76 -24 -24 1015.8 1014.8

 

Местоположение метеостанции Уэлен (Чукотка, Россия): широта 66.16 долгота -169.00 высота над уровнем моря 7 м.

В архиве по умолчанию представлена погода в Уэлене за последнюю неделю. Архивные данные за месяц целиком и за предыдущие месяцы, начиная с января 2011 года, Вы можете получить, выбрав интересующий диапазон дат из раскрывающегося списка и нажав кнопку "Ввод!".


*Определитесь, кто Вы:
робот инопланетянин человек

Внимание! Время в таблицах - всемирное. Для получения местного времени необходимо прибавить поправку, которая равна 12 ч.

Смотрите также архив погоды в соседних городах и на ближайших метеорологических станциях:

Погода на Мысе Ванкарем (Чукотка, Россия) (320 км)
Погода в Эгвекиноте (Чукотка, Россия) (448 км)
Погода на Мысе Шмидта (Чукотка, Россия) (520 км)
Погода на Острове Врангеля (Чукотка, Россия) (648 км)

Пояснения к столбцам:

Ветер - указаны скорость ветра в м/с - средняя за 10 мин, порывы в срок и между сроками (в фигурных скобках) и направление, откуда дует ветер: С - северный, СВ - северо-восточный, В - восточный, ЮВ - юго-восточный, Ю - южный, ЮЗ - юго-западный, З - западный, СЗ - северо-западный.
Видимость - горизонтальная дальность видимости в метрах или километрах. При видимости от 1 до 10 км при отсутствии осадков обычно наблюдается дымка, при ухудшении видимости до 1 км и менее - туман. В сухую погоду видимость может ухудшаться дымом, пылью или мглою.
Явления - указаны атмосферные явления, наблюдавшиеся в срок или в последний час перед сроком; фигурными скобками обозначены явления, наблюдавшиеся между сроками (за 1-3 часа до срока); квадратными скобками обозначены град или гололедные отложения с указанием их диаметра в мм.
Облачность - указаны через наклонную черту общая и нижняя облачность в баллах и высота нижней границы облаков в метрах; квадратными скобками обозначены формы облаков: Ci - перистые, Cs - перисто-слоистые, Cc - перисто-кучевые, Ac - высококучевые, As - высокослоистые, Sc - слоисто-кучевые, Ns - слоисто-дождевые, Cu - кучевые, Cb - кучево-дождевые. Подробнее классификацию облаков см. в Атласе облаков (PDF).
T - Температура воздуха - температура, измеренная на высоте 2 м над землей.
Td - Температура точки росы - температура, при понижении до которой содержащийся в воздухе водяной пар достигнет насыщения.
f - Относительная влажность воздуха - влажноcть воздуха, измеренная на высоте 2 м над землей.
Te - Эффективная температура - температура, которую ощущает одетый по сезону человек в тени. Характеристика душности погоды. При расчете учитывается влияние влажности воздуха и скорости ветра на теплоощущения человека.
Tes - Эффективная температура на солнце - температура, которую ощущает человек, с поправкой на солнечный нагрев. Характеристика знойности погоды. Зависит от высоты солнца над горизонтом, облачности и скорости ветра. Ночью, в пасмурную погоду, а также при ветре 12 м/с и более поправка равна нулю.
P - Атмосферное давление - приведенное к уровню моря атмосферное давление.
Po - Атмосферное давление - измеренное на уровне метеостанции атмосферное давление.
Tmin - Минимальная температура - минимум температуры воздуха на высоте 2 м над землей.
Tmax - Максимальная температура - максимум температуры воздуха на высоте 2 м над землей.
R - Количество осадков - Количество выпавших осадков за период времени, мм. При наведении курсора мыши на число - период времени, за который выпало указанное количество осадков.
R24 - Количество осадков - Количество выпавших осадков за 24 часа, мм.
S - Снежный покров - Высота снежного покрова, см. При наведении курсора мыши на число - состояние снежного покрова и степень покрытия местности в баллах.